START_TIME,STEP,MOV.,AL01,t_acc.,AL02,t_acc.,E37,t_acc.,H21,t_acc.
1980-11-14 06:00:22.870 ,5,0,0.,24.0,0.,24.0,0.,24.0,0.,24.0
1980-11-14 06:00:46.870 ,6,1,0.,24.0,0.,24.0,1.,24.0,0.,24.0
1980-11-14 06:01:10.870 ,6,0,0.,24.0,0.,24.0,0.,24.0,0.,24.0
1980-11-14 06:01:34.870 ,7,1,2.,24.0,0.,24.0,0.,24.0,0.,24.0
1980-11-14 06:01:58.870 ,7,0,7.,24.0,0.,24.0,0.,24.0,0.,24.0
1980-11-14 06:02:22.870 ,7,1,11.,24.0,0.,24.0,2.,24.0,0.,24.0
1980-11-14 06:02:46.870 ,7,0,7.,24.0,0.,24.0,0.,24.0,0.,24.0
1980-11-14 06:03:10.870 ,6,1,6.,24.0,0.,24.0,0.,24.0,0.,24.0
1980-11-14 06:03:34.870 ,6,0,0.,24.0,0.,24.0,0.,24.0,0.,24.0
1980-11-14 06:03:58.870 ,5,1,0.,24.0,0.,24.0,0.,24.0,0.,24.0
1980-11-14 06:04:22.870 ,5,0,,0,,0,,0,,0
1980-11-14 06:04:46.870 ,4,1,0.,24.0,0.,24.0,0.,24.0,0.,24.0
1980-11-14 06:05:10.870 ,4,0,0.,24.0,0.,24.0,0.,24.0,0.,24.0
1980-11-14 06:05:34.870 ,3,1,0.,24.0,0.,24.0,0.,24.0,0.,24.0
1980-11-14 06:05:58.870 ,3,0,0.,24.0,0.,24.0,0.,24.0,0.,24.0
1980-11-14 06:06:22.870 ,2,1,0.,24.0,0.,24.0,1.,24.0,0.,24.0
1980-11-14 06:06:46.870 ,2,0,0.,24.0,0.,24.0,2.,24.0,0.,24.0
1980-11-14 06:07:10.870 ,1,1,0.,24.0,0.,24.0,1.,24.0,0.,24.0
1980-11-14 06:07:34.870 ,1,0,0.,24.0,0.,24.0,0.,24.0,0.,24.0
1980-11-14 06:07:58.870 ,0,1,0.,24.0,0.,24.0,1.,24.0,0.,24.0
1980-11-14 06:08:22.870 ,0,0,0.,24.0,0.,24.0,1.,24.0,0.,24.0
1980-11-14 06:08:46.870 ,0,1,0.,24.0,0.,24.0,0.,24.0,0.,24.0
1980-11-14 06:09:10.870 ,0,0,0.,24.0,0.,24.0,1.,24.0,0.,24.0
1980-11-14 06:09:34.870 ,1,1,0.,24.0,0.,24.0,2.,24.0,0.,24.0
1980-11-14 06:09:58.870 ,1,0,0.,24.0,0.,24.0,0.,24.0,0.,24.0
1980-11-14 06:10:22.870 ,2,1,0.,24.0,0.,24.0,2.,24.0,0.,24.0
1980-11-14 06:10:46.870 ,2,0,0.,24.0,0.,24.0,0.,24.0,0.,24.0
1980-11-14 06:11:10.870 ,3,1,0.,24.0,0.,24.0,1.,24.0,0.,24.0
1980-11-14 06:11:34.870 ,3,0,0.,24.0,0.,24.0,2.,24.0,0.,24.0
1980-11-14 06:11:58.870 ,4,1,0.,24.0,0.,24.0,3.,24.0,0.,24.0
1980-11-14 06:12:22.870 ,4,0,0.,24.0,0.,24.0,1.,24.0,0.,24.0
1980-11-14 06:12:46.870 ,5,1,0.,24.0,0.,24.0,1.,24.0,0.,24.0
1980-11-14 06:13:10.870 ,5,0,0.,24.0,0.,24.0,0.,24.0,0.,24.0
1980-11-14 06:13:34.870 ,6,1,0.,24.0,0.,24.0,1.,24.0,0.,24.0
1980-11-14 06:13:58.870 ,6,0,0.,24.0,1.,24.0,2.,24.0,0.,24.0
1980-11-14 06:14:22.870 ,7,1,1.,24.0,0.,24.0,1.,24.0,0.,24.0
1980-11-14 06:14:46.870 ,7,0,11.,24.0,0.,24.0,0.,24.0,0.,24.0
1980-11-14 06:15:10.870 ,7,1,14.,24.0,0.,24.0,1.,24.0,0.,24.0
1980-11-14 06:15:34.870 ,7,0,7.,24.0,0.,24.0,0.,24.0,0.,24.0
1980-11-14 06:15:58.870 ,6,1,5.,24.0,0.,24.0,0.,24.0,0.,24.0
1980-11-14 06:16:22.870 ,6,0,0.,24.0,0.,24.0,1.,24.0,0.,24.0
1980-11-14 06:16:46.870 ,5,1,0.,24.0,0.,24.0,1.,24.0,0.,24.0
1980-11-14 06:17:10.870 ,5,0,0.,24.0,0.,24.0,1.,24.0,0.,24.0
1980-11-14 06:17:34.870 ,4,1,0.,24.0,0.,24.0,0.,24.0,0.,24.0
1980-11-14 06:17:58.870 ,4,0,0.,24.0,0.,24.0,0.,24.0,0.,24.0
1980-11-14 06:18:22.870 ,3,1,0.,24.0,0.,24.0,1.,24.0,0.,24.0
1980-11-14 06:18:46.870 ,3,0,0.,24.0,0.,24.0,1.,24.0,0.,24.0
1980-11-14 06:19:10.870 ,2,1,0.,24.0,0.,24.0,2.,24.0,0.,24.0
1980-11-14 06:19:34.870 ,2,0,0.,24.0,0.,24.0,2.,24.0,0.,24.0
1980-11-14 06:19:58.870 ,1,1,0.,24.0,0.,24.0,1.,24.0,0.,24.0
1980-11-14 06:20:22.870 ,1,0,0.,24.0,0.,24.0,1.,24.0,0.,24.0
1980-11-14 06:20:46.870 ,0,1,0.,24.0,0.,24.0,0.,24.0,0.,24.0
1980-11-14 06:21:10.870 ,0,0,0.,24.0,0.,24.0,0.,24.0,0.,24.0
1980-11-14 06:21:34.870 ,0,1,0.,24.0,0.,24.0,1.,24.0,0.,24.0
1980-11-14 06:21:58.870 ,0,0,0.,24.0,0.,24.0,0.,24.0,0.,24.0
1980-11-14 06:22:22.870 ,1,1,0.,24.0,0.,24.0,1.,24.0,0.,24.0
1980-11-14 06:22:46.870 ,1,0,0.,24.0,0.,24.0,2.,24.0,0.,24.0
1980-11-14 06:23:10.870 ,2,1,0.,24.0,0.,24.0,3.,24.0,0.,24.0
1980-11-14 06:23:34.870 ,2,0,0.,24.0,0.,24.0,1.,24.0,0.,24.0
1980-11-14 06:23:58.870 ,3,1,0.,24.0,0.,24.0,0.,24.0,0.,24.0
1980-11-14 06:24:22.870 ,3,0,0.,24.0,0.,24.0,1.,24.0,0.,24.0
1980-11-14 06:24:46.870 ,4,1,0.,24.0,0.,24.0,0.,24.0,0.,24.0
1980-11-14 06:25:10.870 ,4,0,0.,24.0,0.,24.0,1.,24.0,0.,24.0
1980-11-14 06:25:34.870 ,5,1,0.,24.0,0.,24.0,1.,24.0,0.,24.0
1980-11-14 06:25:58.870 ,5,0,0.,24.0,0.,24.0,1.,24.0,0.,24.0
1980-11-14 06:26:22.870 ,6,1,0.,24.0,0.,24.0,0.,24.0,0.,24.0
1980-11-14 06:26:46.870 ,6,0,0.,24.0,0.,24.0,1.,24.0,0.,24.0
1980-11-14 06:27:10.870 ,7,1,7.,24.0,0.,24.0,1.,24.0,0.,24.0
1980-11-14 06:27:34.870 ,7,0,5.,24.0,0.,24.0,0.,24.0,0.,24.0
1980-11-14 06:27:58.870 ,7,1,6.,24.0,0.,24.0,1.,24.0,0.,24.0
1980-11-14 06:28:22.870 ,7,0,8.,24.0,0.,24.0,1.,24.0,0.,24.0
1980-11-14 06:28:46.870 ,6,1,9.,24.0,0.,24.0,0.,24.0,0.,24.0
1980-11-14 06:29:10.870 ,0,0,0.,24.0,0.,24.0,0.,24.0,0.,24.0
1980-11-14 07:28:59.470 ,0,0,,0,,0,,0,,0
1980-11-14 07:29:10.870 ,0,0,0.,24.0,0.,24.0,3.,24.0,0.,24.0
1980-11-14 07:29:34.870 ,5,1,0.,24.0,0.,24.0,1.,24.0,0.,24.0
1980-11-14 07:29:58.870 ,5,0,0.,24.0,0.,24.0,0.,24.0,0.,24.0
1980-11-14 07:30:22.870 ,6,1,0.,24.0,0.,24.0,0.,24.0,0.,24.0
1980-11-14 07:30:46.870 ,6,0,0.,24.0,0.,24.0,0.,24.0,0.,24.0
1980-11-14 07:31:10.870 ,7,1,1.,24.0,0.,24.0,0.,24.0,0.,24.0
1980-11-14 07:31:34.870 ,7,0,13.,24.0,0.,24.0,0.,24.0,0.,24.0
1980-11-14 07:31:58.870 ,7,1,7.,24.0,0.,24.0,0.,24.0,0.,24.0
1980-11-14 07:32:22.870 ,7,0,10.,24.0,0.,24.0,1.,24.0,0.,24.0
1980-11-14 07:32:46.870 ,6,1,9.,24.0,0.,24.0,0.,24.0,0.,24.0
1980-11-14 07:33:10.870 ,6,0,0.,24.0,0.,24.0,0.,24.0,0.,24.0
1980-11-14 07:33:34.870 ,5,1,0.,24.0,0.,24.0,2.,24.0,0.,24.0
1980-11-14 07:33:58.870 ,5,0,0.,24.0,0.,24.0,0.,24.0,0.,24.0
1980-11-14 07:34:22.870 ,4,1,0.,24.0,0.,24.0,0.,24.0,0.,24.0
1980-11-14 07:34:46.870 ,4,0,0.,24.0,0.,24.0,0.,24.0,0.,24.0
1980-11-14 07:35:10.870 ,3,1,0.,24.0,0.,24.0,1.,24.0,0.,24.0
1980-11-14 07:35:34.870 ,3,0,0.,24.0,0.,24.0,1.,24.0,0.,24.0
1980-11-14 07:35:58.870 ,2,1,0.,24.0,0.,24.0,0.,24.0,0.,24.0
1980-11-14 07:36:22.870 ,2,0,0.,24.0,0.,24.0,0.,24.0,0.,24.0
1980-11-14 07:36:46.870 ,1,1,0.,24.0,0.,24.0,0.,24.0,0.,24.0
1980-11-14 07:37:10.870 ,1,0,0.,24.0,0.,24.0,0.,24.0,0.,24.0
1980-11-14 07:37:34.870 ,0,1,0.,24.0,0.,24.0,0.,24.0,0.,24.0
1980-11-14 07:37:58.870 ,0,0,0.,24.0,0.,24.0,1.,24.0,0.,24.0
1980-11-14 07:38:22.870 ,0,1,0.,24.0,0.,24.0,0.,24.0,0.,24.0
1980-11-14 07:38:46.870 ,0,0,0.,24.0,0.,24.0,1.,24.0,0.,24.0
1980-11-14 07:39:10.870 ,1,1,0.,24.0,0.,24.0,0.,24.0,0.,24.0
1980-11-14 07:39:34.870 ,1,0,0.,24.0,0.,24.0,2.,24.0,0.,24.0
1980-11-14 07:39:58.870 ,2,1,0.,24.0,0.,24.0,0.,24.0,0.,24.0
1980-11-14 07:40:22.870 ,2,0,0.,24.0,0.,24.0,0.,24.0,0.,24.0
1980-11-14 07:40:46.870 ,3,1,0.,24.0,0.,24.0,1.,24.0,0.,24.0
1980-11-14 07:41:10.870 ,3,0,0.,24.0,0.,24.0,1.,24.0,0.,24.0
1980-11-14 07:41:34.870 ,4,1,0.,24.0,0.,24.0,0.,24.0,0.,24.0
1980-11-14 07:41:58.870 ,4,0,0.,24.0,0.,24.0,0.,24.0,0.,24.0
1980-11-14 07:42:22.870 ,5,1,0.,24.0,0.,24.0,1.,24.0,0.,24.0
1980-11-14 07:42:46.870 ,5,0,0.,24.0,0.,24.0,1.,24.0,0.,24.0
1980-11-14 07:43:10.870 ,6,1,0.,24.0,0.,24.0,2.,24.0,0.,24.0
1980-11-14 07:43:34.870 ,6,0,0.,24.0,0.,24.0,1.,24.0,0.,24.0
1980-11-14 07:43:58.870 ,7,1,3.,24.0,0.,24.0,2.,24.0,0.,24.0
1980-11-14 07:44:22.870 ,7,0,9.,24.0,0.,24.0,0.,24.0,0.,24.0
1980-11-14 07:44:46.870 ,7,1,6.,24.0,0.,24.0,2.,24.0,0.,24.0
1980-11-14 07:45:10.870 ,7,0,9.,24.0,0.,24.0,1.,24.0,0.,24.0
1980-11-14 07:45:34.870 ,6,1,5.,24.0,0.,24.0,0.,24.0,0.,24.0
1980-11-14 07:45:58.870 ,6,0,0.,24.0,0.,24.0,0.,24.0,0.,24.0
1980-11-14 07:46:22.870 ,5,1,0.,24.0,0.,24.0,1.,24.0,0.,24.0
1980-11-14 07:46:46.870 ,5,0,0.,24.0,0.,24.0,0.,24.0,0.,24.0
1980-11-14 07:47:10.870 ,4,1,0.,24.0,0.,24.0,1.,24.0,0.,24.0
1980-11-14 07:47:34.870 ,4,0,0.,24.0,0.,24.0,0.,24.0,0.,24.0
1980-11-14 07:47:58.870 ,3,1,0.,24.0,0.,24.0,2.,24.0,0.,24.0
1980-11-14 07:48:22.870 ,3,0,0.,24.0,0.,24.0,0.,24.0,0.,24.0
1980-11-14 07:48:46.870 ,2,1,0.,24.0,0.,24.0,1.,24.0,0.,24.0
1980-11-14 07:49:10.870 ,2,0,0.,24.0,0.,24.0,2.,24.0,0.,24.0
1980-11-14 07:49:34.870 ,1,1,0.,24.0,0.,24.0,0.,24.0,0.,24.0
1980-11-14 07:49:58.870 ,1,0,0.,24.0,0.,24.0,0.,24.0,0.,24.0
1980-11-14 07:50:22.870 ,0,1,0.,24.0,0.,24.0,2.,24.0,0.,24.0
1980-11-14 07:50:46.870 ,0,0,0.,24.0,0.,24.0,0.,24.0,0.,24.0
1980-11-14 07:51:10.870 ,0,1,0.,24.0,0.,24.0,0.,24.0,0.,24.0
1980-11-14 07:51:34.870 ,0,0,0.,24.0,0.,24.0,0.,24.0,0.,24.0
1980-11-14 07:51:58.870 ,1,1,0.,24.0,0.,24.0,0.,24.0,0.,24.0
1980-11-14 07:52:22.870 ,1,0,0.,24.0,0.,24.0,0.,24.0,0.,24.0
1980-11-14 07:52:46.870 ,2,1,0.,24.0,0.,24.0,1.,24.0,0.,24.0
1980-11-14 07:53:10.870 ,2,0,0.,24.0,0.,24.0,1.,24.0,0.,24.0
1980-11-14 07:53:34.870 ,3,1,0.,24.0,0.,24.0,2.,24.0,0.,24.0
1980-11-14 07:53:58.870 ,3,0,0.,24.0,0.,24.0,2.,24.0,0.,24.0
1980-11-14 07:54:22.870 ,4,1,0.,24.0,0.,24.0,2.,24.0,0.,24.0
1980-11-14 07:54:46.870 ,4,0,0.,24.0,0.,24.0,1.,24.0,0.,24.0
1980-11-14 07:55:10.870 ,5,1,0.,24.0,0.,24.0,1.,24.0,0.,24.0
1980-11-14 07:55:34.870 ,5,0,0.,24.0,0.,24.0,0.,24.0,0.,24.0
1980-11-14 07:55:58.870 ,6,1,0.,24.0,0.,24.0,1.,24.0,0.,24.0
1980-11-14 07:56:22.870 ,6,0,1.,24.0,0.,24.0,1.,24.0,0.,24.0
1980-11-14 07:56:46.870 ,7,1,4.,24.0,0.,24.0,1.,24.0,0.,24.0
1980-11-14 07:57:10.870 ,7,0,9.,24.0,0.,24.0,2.,24.0,0.,24.0
1980-11-14 07:57:34.870 ,7,1,6.,24.0,0.,24.0,0.,24.0,0.,24.0
1980-11-14 07:57:58.870 ,7,0,6.,24.0,0.,24.0,0.,24.0,0.,24.0
1980-11-14 07:58:22.870 ,6,1,12.,24.0,0.,24.0,1.,24.0,0.,24.0
1980-11-14 07:58:46.870 ,6,0,0.,24.0,0.,24.0,0.,24.0,0.,24.0
1980-11-14 07:59:10.870 ,5,1,0.,24.0,0.,24.0,1.,24.0,0.,24.0
1980-11-14 07:59:34.870 ,5,0,0.,24.0,0.,24.0,0.,24.0,0.,24.0
1980-11-14 07:59:58.870 ,4,1,0.,24.0,0.,24.0,2.,24.0,0.,24.0
1980-11-14 08:00:22.870 ,4,0,0.,24.0,0.,24.0,2.,24.0,0.,24.0
1980-11-14 08:00:46.870 ,3,1,0.,24.0,0.,24.0,0.,24.0,0.,24.0
1980-11-14 08:01:10.870 ,3,0,0.,24.0,0.,24.0,0.,24.0,0.,24.0
1980-11-14 08:01:34.870 ,2,1,0.,24.0,0.,24.0,0.,24.0,0.,24.0
1980-11-14 08:01:58.870 ,2,0,0.,24.0,0.,24.0,1.,24.0,0.,24.0
1980-11-14 08:02:22.870 ,1,1,0.,24.0,0.,24.0,0.,24.0,0.,24.0
1980-11-14 08:02:46.870 ,1,0,0.,24.0,0.,24.0,0.,24.0,0.,24.0
1980-11-14 08:03:10.870 ,0,1,0.,24.0,0.,24.0,0.,24.0,0.,24.0
1980-11-14 08:03:34.870 ,0,0,0.,24.0,0.,24.0,1.,24.0,0.,24.0
1980-11-14 08:03:58.870 ,0,1,0.,24.0,0.,24.0,0.,24.0,0.,24.0
1980-11-14 08:04:22.870 ,0,0,0.,24.0,0.,24.0,1.,24.0,0.,24.0
1980-11-14 08:04:46.870 ,1,1,0.,24.0,0.,24.0,1.,24.0,0.,24.0
1980-11-14 08:05:10.870 ,1,0,0.,24.0,0.,24.0,0.,24.0,0.,24.0
1980-11-14 08:05:34.870 ,2,1,0.,24.0,0.,24.0,0.,24.0,0.,24.0
1980-11-14 08:05:58.870 ,2,0,0.,24.0,0.,24.0,0.,24.0,0.,24.0
1980-11-14 08:06:22.870 ,3,1,0.,24.0,0.,24.0,0.,24.0,0.,24.0
1980-11-14 08:06:46.870 ,3,0,0.,24.0,0.,24.0,0.,24.0,0.,24.0
1980-11-14 08:07:10.870 ,4,1,0.,24.0,0.,24.0,1.,24.0,0.,24.0
1980-11-14 08:07:34.870 ,4,0,0.,24.0,0.,24.0,1.,24.0,0.,24.0
1980-11-14 08:07:58.870 ,5,1,0.,24.0,0.,24.0,1.,24.0,0.,24.0
1980-11-14 08:08:22.870 ,5,0,0.,24.0,0.,24.0,1.,24.0,0.,24.0
1980-11-14 08:08:46.870 ,6,1,0.,24.0,0.,24.0,0.,24.0,0.,24.0
1980-11-14 08:09:10.870 ,6,0,0.,24.0,0.,24.0,2.,24.0,0.,24.0
1980-11-14 08:09:34.870 ,7,1,3.,24.0,0.,24.0,0.,24.0,0.,24.0
1980-11-14 08:09:58.870 ,7,0,7.,24.0,0.,24.0,0.,24.0,0.,24.0
1980-11-14 08:10:22.870 ,7,1,11.,24.0,0.,24.0,0.,24.0,0.,24.0
1980-11-14 08:10:46.870 ,7,0,9.,24.0,0.,24.0,1.,24.0,0.,24.0
1980-11-14 08:11:10.870 ,6,1,16.,24.0,0.,24.0,0.,24.0,0.,24.0
1980-11-14 08:11:34.870 ,6,0,0.,24.0,0.,24.0,0.,24.0,0.,24.0
1980-11-14 08:11:58.870 ,5,1,0.,24.0,0.,24.0,2.,24.0,0.,24.0
1980-11-14 08:12:22.870 ,5,0,1.,24.0,0.,24.0,1.,24.0,0.,24.0
1980-11-14 08:12:46.870 ,4,1,0.,24.0,0.,24.0,0.,24.0,0.,24.0
1980-11-14 08:13:10.870 ,4,0,0.,24.0,0.,24.0,0.,24.0,0.,24.0
1980-11-14 08:13:34.870 ,3,1,0.,24.0,0.,24.0,1.,24.0,0.,24.0
1980-11-14 08:13:58.870 ,3,0,0.,24.0,0.,24.0,0.,24.0,0.,24.0
1980-11-14 08:14:22.870 ,2,1,0.,24.0,0.,24.0,0.,24.0,0.,24.0
1980-11-14 08:14:46.870 ,2,0,0.,24.0,0.,24.0,1.,24.0,0.,24.0
1980-11-14 08:15:10.870 ,1,1,0.,24.0,0.,24.0,0.,24.0,0.,24.0
1980-11-14 08:15:34.870 ,1,0,0.,24.0,0.,24.0,0.,24.0,0.,24.0
1980-11-14 08:15:58.870 ,0,1,0.,24.0,0.,24.0,0.,24.0,0.,24.0
1980-11-14 08:16:22.870 ,0,0,0.,24.0,0.,24.0,0.,24.0,0.,24.0
1980-11-14 08:16:46.870 ,0,1,0.,24.0,0.,24.0,1.,24.0,0.,24.0
1980-11-14 08:17:10.870 ,0,0,0.,24.0,0.,24.0,0.,24.0,0.,24.0
1980-11-14 08:17:34.870 ,1,1,0.,24.0,0.,24.0,0.,24.0,0.,24.0
1980-11-14 08:17:58.870 ,1,0,0.,24.0,0.,24.0,2.,24.0,0.,24.0
1980-11-14 08:18:22.870 ,2,1,0.,24.0,0.,24.0,0.,24.0,0.,24.0
1980-11-14 08:18:46.870 ,2,0,0.,24.0,0.,24.0,0.,24.0,0.,24.0
1980-11-14 08:19:10.870 ,3,1,0.,24.0,0.,24.0,0.,24.0,0.,24.0
1980-11-14 08:19:34.870 ,3,0,0.,24.0,0.,24.0,2.,24.0,0.,24.0
1980-11-14 08:19:58.870 ,4,1,0.,24.0,0.,24.0,1.,24.0,0.,24.0
1980-11-14 08:20:22.870 ,4,0,0.,24.0,0.,24.0,0.,24.0,0.,24.0
1980-11-14 08:20:46.870 ,5,1,0.,24.0,0.,24.0,2.,24.0,0.,24.0
1980-11-14 08:21:10.870 ,5,0,0.,24.0,0.,24.0,2.,24.0,0.,24.0
1980-11-14 08:21:34.870 ,6,1,0.,24.0,0.,24.0,0.,24.0,0.,24.0
1980-11-14 08:21:58.870 ,6,0,0.,24.0,0.,24.0,0.,24.0,0.,24.0
1980-11-14 08:22:22.870 ,7,1,0.,24.0,0.,24.0,0.,24.0,0.,24.0
1980-11-14 08:22:46.870 ,7,0,8.,24.0,1.,24.0,2.,24.0,0.,24.0
1980-11-14 08:23:10.870 ,7,1,10.,24.0,0.,24.0,1.,24.0,0.,24.0
1980-11-14 08:23:34.870 ,7,0,9.,24.0,0.,24.0,0.,24.0,0.,24.0
1980-11-14 08:23:58.870 ,6,1,9.,24.0,0.,24.0,0.,24.0,0.,24.0
1980-11-14 08:24:22.870 ,6,0,0.,24.0,0.,24.0,1.,24.0,0.,24.0
1980-11-14 08:24:46.870 ,5,1,0.,24.0,0.,24.0,0.,24.0,0.,24.0
1980-11-14 08:25:10.870 ,5,0,0.,24.0,0.,24.0,1.,24.0,0.,24.0
1980-11-14 08:25:34.870 ,4,1,0.,24.0,0.,24.0,0.,24.0,0.,24.0
1980-11-14 08:25:58.870 ,4,0,0.,24.0,0.,24.0,1.,24.0,0.,24.0
1980-11-14 08:26:22.870 ,3,1,0.,24.0,0.,24.0,1.,24.0,0.,24.0
1980-11-14 08:26:46.870 ,3,0,0.,24.0,0.,24.0,0.,24.0,0.,24.0
1980-11-14 08:27:10.870 ,2,1,0.,24.0,0.,24.0,0.,24.0,0.,24.0
1980-11-14 08:27:34.870 ,2,0,0.,24.0,0.,24.0,0.,24.0,0.,24.0
1980-11-14 08:27:58.870 ,1,1,0.,24.0,0.,24.0,0.,24.0,0.,24.0
1980-11-14 08:28:22.870 ,1,0,0.,24.0,0.,24.0,0.,24.0,0.,24.0
1980-11-14 08:28:46.870 ,0,1,0.,24.0,0.,24.0,1.,24.0,0.,24.0
1980-11-14 08:29:10.870 ,0,0,0.,24.0,0.,24.0,1.,24.0,0.,24.0
1980-11-14 08:29:34.870 ,0,1,0.,24.0,0.,24.0,0.,24.0,0.,24.0
1980-11-14 08:29:58.870 ,0,0,0.,24.0,0.,24.0,0.,24.0,0.,24.0
1980-11-14 08:30:22.870 ,1,1,1.,24.0,0.,24.0,0.,24.0,0.,24.0
1980-11-14 08:30:46.870 ,1,0,0.,24.0,0.,24.0,0.,24.0,0.,24.0
1980-11-14 08:31:10.870 ,2,1,0.,24.0,0.,24.0,0.,24.0,0.,24.0
1980-11-14 08:31:34.870 ,2,0,0.,24.0,0.,24.0,2.,24.0,0.,24.0
1980-11-14 08:31:58.870 ,3,1,0.,24.0,0.,24.0,0.,24.0,0.,24.0
1980-11-14 08:32:22.870 ,3,0,0.,24.0,0.,24.0,2.,24.0,0.,24.0
1980-11-14 08:32:46.870 ,4,1,1.,24.0,0.,24.0,1.,24.0,0.,24.0
1980-11-14 08:33:10.870 ,4,0,0.,24.0,0.,24.0,0.,24.0,0.,24.0
1980-11-14 08:33:34.870 ,5,1,0.,24.0,0.,24.0,0.,24.0,0.,24.0
1980-11-14 08:33:58.870 ,5,0,0.,24.0,0.,24.0,0.,24.0,0.,24.0
1980-11-14 08:34:22.870 ,6,1,0.,24.0,0.,24.0,0.,24.0,0.,24.0
1980-11-14 08:34:46.870 ,6,0,0.,24.0,0.,24.0,0.,24.0,0.,24.0
1980-11-14 08:35:10.870 ,7,1,2.,24.0,0.,24.0,1.,24.0,0.,24.0
1980-11-14 08:35:34.870 ,7,0,13.,24.0,0.,24.0,0.,24.0,0.,24.0
1980-11-14 08:35:58.870 ,7,1,9.,24.0,0.,24.0,1.,24.0,0.,24.0
1980-11-14 08:36:22.870 ,7,0,8.,24.0,0.,24.0,1.,24.0,0.,24.0
1980-11-14 08:36:46.870 ,6,1,9.,24.0,0.,24.0,1.,24.0,0.,24.0
1980-11-14 08:37:10.870 ,6,0,0.,24.0,0.,24.0,1.,24.0,0.,24.0
1980-11-14 08:37:34.870 ,5,1,0.,24.0,0.,24.0,0.,24.0,0.,24.0
1980-11-14 08:37:58.870 ,5,0,0.,24.0,0.,24.0,1.,24.0,0.,24.0
1980-11-14 08:38:22.870 ,4,1,0.,24.0,0.,24.0,1.,24.0,0.,24.0
1980-11-14 08:38:46.870 ,4,0,0.,24.0,0.,24.0,1.,24.0,0.,24.0
1980-11-14 08:39:10.870 ,3,1,0.,24.0,0.,24.0,1.,24.0,0.,24.0
1980-11-14 08:39:34.870 ,3,0,0.,24.0,0.,24.0,0.,24.0,0.,24.0
1980-11-14 08:39:58.870 ,2,1,0.,24.0,0.,24.0,0.,24.0,0.,24.0
1980-11-14 08:40:22.870 ,2,0,0.,24.0,0.,24.0,2.,24.0,0.,24.0
1980-11-14 08:40:46.870 ,1,1,0.,24.0,0.,24.0,0.,24.0,0.,24.0
1980-11-14 08:41:10.870 ,1,0,0.,24.0,0.,24.0,0.,24.0,0.,24.0
1980-11-14 08:41:34.870 ,0,1,0.,24.0,0.,24.0,1.,24.0,0.,24.0
1980-11-14 08:41:58.870 ,0,0,0.,24.0,0.,24.0,0.,24.0,0.,24.0
1980-11-14 08:42:22.870 ,0,1,0.,24.0,0.,24.0,1.,24.0,0.,24.0
1980-11-14 08:42:46.870 ,0,0,0.,24.0,0.,24.0,1.,24.0,0.,24.0
1980-11-14 08:43:10.870 ,1,1,0.,24.0,0.,24.0,0.,24.0,0.,24.0
1980-11-14 08:43:34.870 ,1,0,0.,24.0,0.,24.0,1.,24.0,0.,24.0
1980-11-14 08:43:58.870 ,2,1,0.,24.0,0.,24.0,0.,24.0,0.,24.0
1980-11-14 08:44:22.870 ,2,0,0.,24.0,0.,24.0,1.,24.0,0.,24.0
1980-11-14 08:44:46.870 ,3,1,0.,24.0,0.,24.0,1.,24.0,0.,24.0
1980-11-14 08:45:10.870 ,3,0,0.,24.0,0.,24.0,1.,24.0,0.,24.0
1980-11-14 08:45:34.870 ,4,1,0.,24.0,0.,24.0,1.,24.0,0.,24.0
1980-11-14 08:45:58.870 ,4,0,0.,24.0,0.,24.0,0.,24.0,0.,24.0
1980-11-14 08:46:22.870 ,5,1,0.,24.0,0.,24.0,1.,24.0,0.,24.0
1980-11-14 08:46:46.870 ,5,0,0.,24.0,0.,24.0,0.,24.0,0.,24.0
1980-11-14 08:47:10.870 ,6,1,0.,24.0,0.,24.0,0.,24.0,0.,24.0
1980-11-14 08:47:34.870 ,6,0,0.,24.0,0.,24.0,1.,24.0,0.,24.0
1980-11-14 08:47:58.870 ,7,1,1.,24.0,0.,24.0,0.,24.0,0.,24.0
1980-11-14 08:48:22.870 ,0,0,8.,24.0,0.,24.0,0.,24.0,0.,24.0
1980-11-14 08:48:46.870 ,7,1,14.,24.0,0.,24.0,2.,24.0,0.,24.0
1980-11-14 08:49:10.870 ,7,0,7.,24.0,0.,24.0,1.,24.0,0.,24.0
1980-11-14 08:49:34.870 ,6,1,7.,24.0,0.,24.0,1.,24.0,0.,24.0
1980-11-14 08:49:58.870 ,6,0,0.,24.0,0.,24.0,0.,24.0,0.,24.0
1980-11-14 08:50:22.870 ,5,1,0.,24.0,1.,24.0,0.,24.0,0.,24.0
1980-11-14 08:50:46.870 ,5,0,0.,24.0,0.,24.0,0.,24.0,0.,24.0
1980-11-14 08:51:10.870 ,4,1,0.,24.0,0.,24.0,1.,24.0,0.,24.0
1980-11-14 08:51:34.870 ,4,0,0.,24.0,0.,24.0,0.,24.0,0.,24.0
1980-11-14 08:51:58.870 ,3,1,0.,24.0,0.,24.0,1.,24.0,0.,24.0
1980-11-14 08:52:22.870 ,3,0,0.,24.0,0.,24.0,0.,24.0,0.,24.0
1980-11-14 08:52:46.870 ,2,1,0.,24.0,0.,24.0,1.,24.0,0.,24.0
1980-11-14 08:53:10.870 ,2,0,0.,24.0,1.,24.0,0.,24.0,0.,24.0
1980-11-14 08:53:34.870 ,1,1,0.,24.0,0.,24.0,1.,24.0,0.,24.0
1980-11-14 08:53:58.870 ,1,0,0.,24.0,0.,24.0,0.,24.0,0.,24.0
1980-11-14 08:54:22.870 ,0,1,0.,24.0,0.,24.0,1.,24.0,0.,24.0
1980-11-14 08:54:46.870 ,0,0,0.,24.0,0.,24.0,0.,24.0,0.,24.0
1980-11-14 08:55:10.870 ,0,1,0.,24.0,0.,24.0,1.,24.0,0.,24.0
1980-11-14 08:55:34.870 ,0,0,0.,24.0,0.,24.0,1.,24.0,0.,24.0
1980-11-14 08:55:58.870 ,1,1,0.,24.0,0.,24.0,0.,24.0,0.,24.0
1980-11-14 08:56:22.870 ,1,0,0.,24.0,0.,24.0,1.,24.0,0.,24.0
1980-11-14 08:56:46.870 ,2,1,0.,24.0,0.,24.0,0.,24.0,0.,24.0
1980-11-14 08:57:10.870 ,2,0,0.,24.0,0.,24.0,2.,24.0,0.,24.0
1980-11-14 08:57:34.870 ,0,0,0.,24.0,0.,24.0,1.,24.0,0.,24.0
1980-11-14 08:57:58.870 ,0,0,,0,,0,,0,,0
